Regional Weather Roundup
Issued by NWS Sioux Falls, SD

Home | Current Version | Previous Version | Text Only | Print | Product List | Glossary On
Versions: 1 2 3 4 5 6 7 8 9 10 11 12 13 14 15 16 17 18 19 20 21 22 23 24 25 26 27 28 29 30 31 32 33 34 35 36 37 38 39 40 41 42 43 44 45 46 47 48 49 50
000
ASUS43 KFSD 291910
RWRFSD

WEATHER ROUNDUP FOR SE SOUTH DAKOTA/SW MINNESOTA/NW IOWA
NATIONAL WEATHER SERVICE SIOUX FALLS SD
200 PM CDT TUE JUL 29 2014

NOTE: "FAIR" INDICATES FEW OR NO CLOUDS BELOW 12,000 FEET WITH NO
SIGNIFICANT WEATHER AND OR OBSTRUCTIONS TO VISIBILITY.


SDZ038>040-050-052>070-292000-
SOUTHEAST SOUTH DAKOTA

CITY           SKY/WX    TMP DP  RH WIND       PRES   REMARKS
CHAMBERLAIN    PTSUNNY   75  51  41 CALM      30.20F
HURON          MOSUNNY   75  50  41 VRB5      30.19F
MADISON        FAIR      72  50  46 N5        30.21F
MITCHELL       MOSUNNY   76  54  46 N8        30.20F
SIOUX FALLS    PTSUNNY   74  52  46 W5        30.19F
WINNER         FAIR      79  47  32 CALM      30.20F
YANKTON        PTSUNNY   72  52  49 NW6       30.20F
$$

MNZ071-072-080-081-089-090-097-098-292000-
SOUTHWEST MINNESOTA

CITY           SKY/WX    TMP DP  RH WIND       PRES   REMARKS
FAIRMONT       MOSUNNY   75  52  43 NW8       30.16F
JACKSON        MOSUNNY   72  50  46 W3        30.19S
LUVERNE        MOSUNNY   73  50  43 W5        30.20F
MARSHALL       SUNNY     73  52  46 N12       30.16F
MONTEVIDEO     MOSUNNY   77  55  47 NE14      30.17F
PIPESTONE      MOSUNNY   72  52  49 N3        30.20S
REDWOOD FALLS  SUNNY     77  53  43 NW10      30.15F
TRACY          MOSUNNY   74  56  54 N9        30.18F
WINDOM         MOSUNNY   73  52  46 NW8       30.17F
WORTHINGTON    MOSUNNY   72  52  49 N5        30.20F
$$

IAZ001>003-012>014-020>022-031-032-NEZ013-014-SDZ071-292000-
NORTHWEST IOWA

CITY           SKY/WX    TMP DP  RH WIND       PRES   REMARKS
CHEROKEE       MOSUNNY   74  52  47 CALM      30.18F
DENISON        PTSUNNY   70  55  60 NW10      30.18S
ESTHERVILLE    MOSUNNY   71  52  50 NW7       30.17F
LE MARS        CLOUDY    72  54  53 N7        30.20F
ORANGE CITY    MOSUNNY   73  52  46 W3        30.20S
SHELDON        PTSUNNY   72  54  53 VRB6      30.18F
SIOUX CITY     CLOUDY    74  54  49 N6        30.19F
SPENCER        PTSUNNY   72  54  53 NW7       30.18F
STORM LAKE     PTSUNNY   70  55  60 N7        30.20S
$$

ABBREVIATIONS USED IN REMARKS
   TC - TEMPERATURE IN CELSIUS
  WCI - WIND CHILL INDEX
   HX - HEAT INDEX
  VSB - VISIBILITY



USA.gov is the U.S. government's official web portal to all federal, state and local government web resources and services.